Volver al catálogo

STARLINK-31178

ActivoComunicacionesVLEO
NORAD 59025·PAYLOAD·🇺🇸 United States

Lanzado Feb 25, 2024 desde Cape Canaveral Space Force Station

Loading…

Próximos Pases (próximas 24 horas)

TLE

ActualizadoSource: CelesTrak SupGP

Época: Sep 15, 2026, 01:48 UTC

1 59025C 24038C   26258.07548611 -.00028610  00000+0 -10361-2 0  2582
2 59025  43.0036  37.6377 0001454 269.8158 329.4670 15.27596916    18

Sigue STARLINK-31178 en tiempo real con AllMySat

Download on the App Store